DLH3PW EDDG-EDDS

Flight info

Callsign DLH3PW
Flight time N/A
Altitude 23000
Route DOMEG1W/25 DOMEG Z841 BIGSU L603 BOMBI N850 KRH T128 BADSO BADSO2A
Aircraft A20N/M-SDE2E3FGHIRWXY/LB1

Departure

Time 2026-04-26 18:42
Airport Münster Osnabrück Airport (EDDG)

Arrival

Time N/A
Airport Stuttgart Airport (EDDS)
Time Latitude Longitude Altitude Speed Heading
2026-04-26 18:01 52.13202 7.69550 168 ft 0 kts 198°
2026-04-26 18:23 52.13206 7.69552 167 ft 1 kts 194°
2026-04-26 18:23 52.13214 7.69555 167 ft 1 kts 188°
2026-04-26 18:24 52.13221 7.69556 167 ft 1 kts 174°
2026-04-26 18:24 52.13229 7.69554 167 ft 1 kts 168°
2026-04-26 18:24 52.13237 7.69552 167 ft 1 kts 163°
2026-04-26 18:24 52.13244 7.69549 167 ft 1 kts 160°
2026-04-26 18:25 52.13251 7.69544 167 ft 1 kts 161°
2026-04-26 18:25 52.13258 7.69540 167 ft 1 kts 171°
2026-04-26 18:25 52.13266 7.69538 166 ft 1 kts 195°
2026-04-26 18:25 52.13273 7.69542 166 ft 1 kts 230°
2026-04-26 18:26 52.13276 7.69546 166 ft 0 kts 248°
2026-04-26 18:35 52.13271 7.69529 166 ft 6 kts 248°
2026-04-26 18:35 52.13302 7.69448 166 ft 14 kts 328°
2026-04-26 18:35 52.13381 7.69386 165 ft 0 kts 319°
2026-04-26 18:36 52.13385 7.69376 165 ft 5 kts 305°
2026-04-26 18:36 52.13397 7.69255 164 ft 16 kts 302°
2026-04-26 18:36 52.13460 7.69265 166 ft 8 kts 68°
2026-04-26 18:36 52.13491 7.69406 167 ft 19 kts 69°
2026-04-26 18:37 52.13537 7.69642 167 ft 21 kts 76°
2026-04-26 18:37 52.13569 7.69814 165 ft 6 kts 69°
2026-04-26 18:37 52.13584 7.69880 165 ft 4 kts 69°
2026-04-26 18:37 52.13586 7.69887 165 ft 0 kts 69°
2026-04-26 18:38 52.13590 7.69908 165 ft 7 kts 69°
2026-04-26 18:38 52.13642 7.70023 165 ft 16 kts 32°
2026-04-26 18:38 52.13686 7.70032 164 ft 0 kts 350°
2026-04-26 18:41 52.13724 7.70016 163 ft 13 kts 341°
2026-04-26 18:41 52.13760 7.69875 167 ft 12 kts 252°
2026-04-26 18:41 52.13723 7.69701 168 ft 56 kts 250°
2026-04-26 18:42 52.13490 7.68611 169 ft 143 kts 251°
2026-04-26 18:42 52.13120 7.66991 809 ft 159 kts 249°
2026-04-26 18:42 52.12660 7.65144 1419 ft 190 kts 247°
2026-04-26 18:42 52.12152 7.63150 2593 ft 193 kts 244°
2026-04-26 18:43 52.11617 7.60999 3298 ft 209 kts 251°
2026-04-26 18:43 52.11161 7.58625 4068 ft 228 kts 255°
2026-04-26 18:43 52.10692 7.55992 4463 ft 258 kts 251°
2026-04-26 18:43 52.09706 7.53521 4585 ft 266 kts 223°
2026-04-26 18:44 52.08094 7.52072 4702 ft 269 kts 194°
2026-04-26 18:44 52.06235 7.52061 4829 ft 271 kts 168°
2026-04-26 18:44 52.04356 7.52318 4990 ft 273 kts 185°
2026-04-26 18:44 52.02458 7.51872 5565 ft 278 kts 191°
2026-04-26 18:45 52.00546 7.51394 6752 ft 280 kts 185°
2026-04-26 18:45 51.98574 7.51523 7748 ft 288 kts 174°
2026-04-26 18:45 51.96573 7.51985 8759 ft 294 kts 172°
2026-04-26 18:45 51.94533 7.52508 9773 ft 300 kts 172°
2026-04-26 18:46 51.92449 7.53062 10691 ft 309 kts 172°
2026-04-26 18:46 51.90242 7.53650 11157 ft 333 kts 172°
2026-04-26 18:46 51.87877 7.54279 11607 ft 354 kts 172°
2026-04-26 18:46 51.85417 7.54931 12440 ft 360 kts 172°
2026-04-26 18:47 51.82932 7.55588 13361 ft 365 kts 172°
2026-04-26 18:47 51.80404 7.56254 14252 ft 370 kts 172°
2026-04-26 18:47 51.77852 7.56925 15058 ft 373 kts 172°
2026-04-26 18:47 51.75276 7.57601 15896 ft 377 kts 172°
2026-04-26 18:48 51.72702 7.58275 16700 ft 381 kts 172°
2026-04-26 18:48 51.70049 7.58978 17515 ft 385 kts 171°
2026-04-26 18:48 51.67444 7.60175 18292 ft 391 kts 162°
2026-04-26 18:48 51.64919 7.61739 18993 ft 396 kts 160°
2026-04-26 18:49 51.62344 7.63392 19633 ft 401 kts 160°
2026-04-26 18:49 51.59722 7.65017 20275 ft 406 kts 161°
2026-04-26 18:49 51.57059 7.66603 20917 ft 411 kts 162°
2026-04-26 18:49 51.54352 7.68170 21544 ft 415 kts 162°
2026-04-26 18:50 51.51603 7.69739 22176 ft 420 kts 162°
2026-04-26 18:50 51.48830 7.71313 22807 ft 425 kts 162°
2026-04-26 18:50 51.46045 7.72892 22961 ft 425 kts 162°
2026-04-26 18:50 51.43255 7.74472 23067 ft 425 kts 162°
2026-04-26 18:51 51.40455 7.76056 23177 ft 426 kts 162°
2026-04-26 18:51 51.37658 7.77635 23266 ft 428 kts 162°
2026-04-26 18:51 51.34885 7.79210 23268 ft 428 kts 162°
2026-04-26 18:51 51.32042 7.80822 23270 ft 427 kts 162°
2026-04-26 18:52 51.29240 7.82411 23266 ft 427 kts 160°
2026-04-26 18:52 51.26620 7.84528 23268 ft 429 kts 151°
2026-04-26 18:52 51.24071 7.87016 23264 ft 429 kts 149°
2026-04-26 18:52 51.21510 7.89592 23264 ft 430 kts 149°
2026-04-26 18:53 51.18991 7.92093 23268 ft 429 kts 149°
2026-04-26 18:53 51.16426 7.94592 23266 ft 429 kts 150°
2026-04-26 18:53 51.13870 7.97047 23260 ft 429 kts 150°
2026-04-26 18:53 51.11305 7.99492 23261 ft 429 kts 150°
2026-04-26 18:54 51.08744 8.01922 23262 ft 429 kts 150°
2026-04-26 18:54 51.06177 8.04353 23260 ft 429 kts 150°
2026-04-26 18:54 51.03613 8.06778 23260 ft 428 kts 150°
2026-04-26 18:54 51.01055 8.09196 23257 ft 428 kts 150°
2026-04-26 18:55 50.98495 8.11612 23254 ft 428 kts 150°
2026-04-26 18:55 50.95969 8.13994 23252 ft 428 kts 150°
2026-04-26 18:55 50.93406 8.16408 23249 ft 428 kts 150°
2026-04-26 18:55 50.90844 8.18818 23249 ft 428 kts 150°
2026-04-26 18:56 50.88281 8.21225 23244 ft 428 kts 150°
2026-04-26 18:56 50.85740 8.23683 23242 ft 428 kts 149°
2026-04-26 18:56 50.83185 8.26106 23244 ft 428 kts 150°
2026-04-26 18:56 50.80580 8.28387 23248 ft 427 kts 157°
2026-04-26 18:57 50.77779 8.29879 23246 ft 425 kts 167°
2026-04-26 18:57 50.75843 8.30668 23244 ft 425 kts 167°
2026-04-26 18:57 50.72048 8.32173 23250 ft 425 kts 168°
2026-04-26 18:57 50.69177 8.33285 23243 ft 425 kts 168°
2026-04-26 18:58 50.66308 8.34384 23245 ft 425 kts 168°
2026-04-26 18:58 50.63432 8.35480 23249 ft 425 kts 168°
2026-04-26 18:58 50.60561 8.36573 23261 ft 425 kts 168°
2026-04-26 18:58 50.57689 8.37664 23262 ft 425 kts 168°
2026-04-26 18:59 50.54815 8.38753 23274 ft 425 kts 168°
2026-04-26 18:59 50.51945 8.39841 23265 ft 424 kts 168°
2026-04-26 18:59 50.49073 8.40930 23261 ft 424 kts 168°
2026-04-26 18:59 50.46198 8.42018 23259 ft 425 kts 168°
2026-04-26 19:00 50.43329 8.43122 23261 ft 425 kts 166°
2026-04-26 19:00 50.40463 8.44263 23265 ft 425 kts 167°
2026-04-26 19:00 50.37592 8.45385 23262 ft 425 kts 167°
2026-04-26 19:00 50.34721 8.46458 23255 ft 424 kts 168°
2026-04-26 19:01 50.31843 8.47498 23252 ft 425 kts 169°
2026-04-26 19:01 50.28967 8.48528 23253 ft 424 kts 169°
2026-04-26 19:01 50.26091 8.49573 23247 ft 424 kts 168°
2026-04-26 19:01 50.23220 8.50632 23246 ft 424 kts 168°
2026-04-26 19:02 50.20349 8.51700 23244 ft 424 kts 168°
2026-04-26 19:02 50.17369 8.52813 23240 ft 424 kts 168°
2026-04-26 19:02 50.14609 8.53845 23239 ft 424 kts 168°
2026-04-26 19:02 50.12709 8.54556 23240 ft 424 kts 168°
2026-04-26 19:03 50.08871 8.55988 23237 ft 425 kts 168°
2026-04-26 19:03 50.05993 8.57059 23238 ft 425 kts 168°
2026-04-26 19:03 50.03120 8.58128 23238 ft 425 kts 168°
2026-04-26 19:03 50.00243 8.59197 23238 ft 425 kts 168°
2026-04-26 19:04 49.97370 8.60263 23238 ft 425 kts 168°
2026-04-26 19:04 49.94485 8.61332 23238 ft 425 kts 168°
2026-04-26 19:04 49.91612 8.62395 23238 ft 425 kts 168°
2026-04-26 19:04 49.88735 8.63458 23236 ft 425 kts 168°
2026-04-26 19:05 49.82965 8.65584 23235 ft 428 kts 168°
2026-04-26 19:05 49.80067 8.66652 23236 ft 427 kts 168°
2026-04-26 19:05 49.77178 8.67713 23242 ft 427 kts 168°
2026-04-26 19:06 49.74253 8.68485 23238 ft 426 kts 176°
2026-04-26 19:06 49.71339 8.68657 23237 ft 424 kts 184°
2026-04-26 19:06 49.68363 8.68306 23237 ft 424 kts 187°
2026-04-26 19:06 49.65472 8.67897 23233 ft 423 kts 187°
2026-04-26 19:07 49.62532 8.67491 23236 ft 425 kts 187°
2026-04-26 19:07 49.59582 8.67091 23236 ft 425 kts 187°
2026-04-26 19:07 49.56635 8.66696 23238 ft 425 kts 187°
2026-04-26 19:07 49.53691 8.66304 23238 ft 425 kts 187°
2026-04-26 19:08 49.50739 8.65911 23238 ft 425 kts 187°
2026-04-26 19:08 49.47790 8.65519 23238 ft 425 kts 187°
2026-04-26 19:08 49.44844 8.65128 23238 ft 425 kts 187°
2026-04-26 19:08 49.41895 8.64736 23231 ft 425 kts 187°
2026-04-26 19:09 49.38939 8.64344 23236 ft 427 kts 187°
2026-04-26 19:09 49.35977 8.63951 23234 ft 427 kts 187°
2026-04-26 19:09 49.33022 8.63560 23235 ft 427 kts 187°
2026-04-26 19:09 49.30065 8.63143 23233 ft 426 kts 187°
2026-04-26 19:10 49.27112 8.62681 23232 ft 426 kts 188°
2026-04-26 19:10 49.24167 8.62211 23230 ft 426 kts 188°
2026-04-26 19:10 49.21212 8.61760 23212 ft 425 kts 187°
2026-04-26 19:10 49.18277 8.61383 22860 ft 423 kts 187°
2026-04-26 19:11 49.15363 8.60932 22547 ft 419 kts 188°
2026-04-26 19:11 49.12465 8.60443 22280 ft 419 kts 188°
2026-04-26 19:11 49.09570 8.59969 22017 ft 418 kts 188°
2026-04-26 19:11 49.06687 8.59526 21754 ft 415 kts 187°
2026-04-26 19:12 49.03821 8.59097 21496 ft 413 kts 183°
2026-04-26 19:12 49.00956 8.58766 21229 ft 412 kts 184°
2026-04-26 19:12 48.98095 8.58707 20970 ft 411 kts 176°
2026-04-26 19:12 48.95244 8.59062 20713 ft 412 kts 177°
2026-04-26 19:13 48.92390 8.59375 20465 ft 409 kts 175°
2026-04-26 19:13 48.89564 8.59765 20210 ft 407 kts 171°
2026-04-26 19:13 48.86858 8.61005 19830 ft 408 kts 147°
2026-04-26 19:13 48.84586 8.63545 19291 ft 406 kts 132°
2026-04-26 19:14 48.82981 8.66989 18699 ft 398 kts 107°
2026-04-26 19:14 48.82340 8.71027 17968 ft 393 kts 91°
2026-04-26 19:14 48.82307 8.75144 17286 ft 389 kts 92°
2026-04-26 19:14 48.82213 8.76469 17007 ft 391 kts 97°
2026-04-26 19:15 48.80494 8.82870 15713 ft 393 kts 118°
2026-04-26 19:15 48.79520 8.86688 15096 ft 387 kts 100°
2026-04-26 19:15 48.79402 8.90714 14496 ft 381 kts 83°
2026-04-26 19:15 48.79631 8.94700 13885 ft 377 kts 84°
2026-04-26 19:16 48.79875 8.98553 13586 ft 365 kts 83°
2026-04-26 19:16 48.80097 9.02318 13480 ft 357 kts 83°
2026-04-26 19:16 48.80341 9.06105 13368 ft 361 kts 83°
2026-04-26 19:16 48.80579 9.09888 13257 ft 359 kts 84°
2026-04-26 19:17 48.80819 9.13658 13212 ft 358 kts 83°
2026-04-26 19:17 48.81056 9.17422 13212 ft 359 kts 84°
2026-04-26 19:17 48.81294 9.21192 13213 ft 359 kts 82°
2026-04-26 19:17 48.81533 9.24967 13212 ft 360 kts 84°
2026-04-26 19:18 48.81746 9.28756 13211 ft 360 kts 83°
2026-04-26 19:18 48.81975 9.32536 13209 ft 359 kts 82°
2026-04-26 19:18 48.82186 9.36316 13212 ft 360 kts 84°
2026-04-26 19:18 48.82425 9.40095 13214 ft 360 kts 84°
2026-04-26 19:19 48.82666 9.43871 13217 ft 360 kts 82°
2026-04-26 19:19 48.82893 9.47652 13217 ft 360 kts 82°
2026-04-26 19:19 48.82850 9.51443 13219 ft 361 kts 102°
2026-04-26 19:19 48.81917 9.54963 13217 ft 362 kts 124°
2026-04-26 19:20 48.80213 9.57722 13079 ft 359 kts 145°
2026-04-26 19:20 48.79509 9.58415 12960 ft 357 kts 152°
2026-04-26 19:20 48.75652 9.60535 12092 ft 353 kts 164°
2026-04-26 19:20 48.73320 9.61664 11566 ft 350 kts 164°
2026-04-26 19:21 48.71013 9.62787 11093 ft 346 kts 164°
2026-04-26 19:21 48.68765 9.63888 10937 ft 332 kts 163°
2026-04-26 19:21 48.66611 9.64943 10796 ft 318 kts 164°
2026-04-26 19:21 48.64548 9.65947 10678 ft 305 kts 164°
2026-04-26 19:22 48.62559 9.66916 10423 ft 298 kts 164°
2026-04-26 19:22 48.60608 9.67870 10332 ft 296 kts 164°
2026-04-26 19:22 48.58632 9.68834 10236 ft 300 kts 161°
2026-04-26 19:22 48.56655 9.69796 10204 ft 298 kts 162°
2026-04-26 19:23 48.54657 9.70587 10211 ft 296 kts 174°
2026-04-26 19:23 48.52631 9.70357 10221 ft 293 kts 200°
2026-04-26 19:23 48.50909 9.68888 10212 ft 288 kts 225°
2026-04-26 19:23 48.49757 9.66472 10214 ft 285 kts 244°
2026-04-26 19:24 48.49008 9.63730 10209 ft 282 kts 261°
2026-04-26 19:24 48.48952 9.60787 10208 ft 282 kts 274°
2026-04-26 19:24 48.49125 9.54897 10211 ft 281 kts 274°
2026-04-26 19:25 48.49213 9.51953 10209 ft 282 kts 272°
2026-04-26 19:25 48.49247 9.50956 10209 ft 282 kts 273°
2026-04-26 19:25 48.49399 9.46084 10021 ft 274 kts 274°
2026-04-26 19:25 48.49481 9.43270 9925 ft 263 kts 273°
2026-04-26 19:26 48.49561 9.40571 9814 ft 252 kts 274°
2026-04-26 19:26 48.49649 9.37984 9590 ft 245 kts 274°
2026-04-26 19:26 48.49726 9.35421 9227 ft 244 kts 274°
2026-04-26 19:26 48.49798 9.32864 8850 ft 244 kts 274°
2026-04-26 19:27 48.49870 9.30311 8523 ft 243 kts 274°
2026-04-26 19:27 48.49889 9.29454 8409 ft 243 kts 266°